Probability
0 0 0 0 0 0 0 0 0 0 0 0 0 0 0 0 0 0 0 0 0 0 0 0 0 0 0 0 0 0 0 0 0 0 0 0 0 0 0 0 0 0 0 0
6 0 0 0 0 0 0 0 0 0 0 0 0 0 0 0 0 0 0 0 0 0 0 0 0 0 0 0 0 0 0 0 0 0 0 0 0 0 0 0 0 0 0 0
3 0 0 3 0 0 0 0 0 0 0 0 0 0 0 0 0 0 0 0 0 0 0 0 0 0 0 0 0 0 0 0 0 0 0 0 0 0 0 0 0 0 0 0
0 0 0 3 0 0 0 0 0 0 0 0 0 0 0 0 0 0 0 0 0 0 0 0 0 0 0 0 0 0 0 0 0 0 0 0 0 0 0 0 0 0 0 0
0 0 0 0 0 0 0 0 0 0 0 0 0 0 0 0 0 0 0 0 0 0 0 0 0 0 0 0 0 0 0 0 0 0 0 0 0 6 3 0 0 0 0 0
0 0 0 0 0 0 0 0 0 0 0 0 0 0 0 0 0 0 0 0 0 0 0 0 0 0 0 0 0 0 0 0 0 0 0 0 0 0 0 0 0 0 0 0
0 0 0 0 0 0 0 0 0 0 0 0 0 0 0 0 0 0 0 0 0 0 0 0 0 0 0 0 0 0 0 0 0 0 0 0 3 0 0 0 0 0 0 0
0 0 0 0 0 0 0 0 0 0 0 0 0 0 0 0 0 0 0 0 0 0 0 0 0 3 0 0 0 0 0 0 0 0 0 0 3 0 0 0 0 0 0 0
0 0 0 0 0 0 0 0 0 0 0 0 0 0 0 0 0 0 0 0 0 0 0 0 0 0 0 0 0 0 0 0 0 0 0 0 0 0 0 0 0 0 0 0
0 0 0 0 0 0 0 0 0 0 0 0 0 0 0 0 0 0 0 0 0 0 0 0 3 0 3 0 0 0 0 0 0 0 0 0 0 0 0 0 0 0 0 0
0 0 0 0 0 0 0 0 0 0 0 0 0 0 0 0 0 0 0 0 0 0 0 0 0 0 0 0 0 0 0 0 0 0 0 0 0 0 0 0 0 0 0 3
0 0 0 0 0 0 0 0 0 0 0 0 0 0 0 0 0 0 0 0 0 0 0 0 0 0 0 0 0 0 0 0 0 0 0 0 0 0 0 0 0 0 0 0
0 0 0 0 0 0 0 0 0 0 0 0 0 0 0 0 0 0 0 0 0 0 0 0 0 0 0 0 0 0 0 0 0 0 0 0 0 0 0 0 0 0 0 0
0 0 0 0 0 0 0 0 0 0 0 0 0 0 0 0 0 0 0 0 0 0 0 0 0 0 0 0 0 0 0 0 0 0 0 0 0 0 0 0 3 0 0 0
0 0 0 0 0 0 0 0 0 0 0 0 0 0 0 0 0 0 0 0 0 0 0 0 0 0 0 0 0 0 0 0 0 0 0 0 0 0 0 0 0 0 0 0
0 0 0 0 0 0 0 0 0 0 0 0 0 0 0 0 0 0 0 0 0 0 0 0 0 0 0 0 0 0 0 0 0 0 0 0 0 0 0 0 0 0 0 0
0 0 0 0 0 0 0 0 0 0 0 0 0 0 0 0 0 0 0 0 0 0 0 0 0 0 0 0 0 0 0 0 0 0 0 0 0 0 0 0 0 0 0 0
0 0 0 0 0 0 0 0 0 0 0 0 0 0 0 0 0 0 0 0 0 0 0 0 0 0 0 0 0 0 0 0 0 0 0 0 0 0 0 0 0 0 0 0
0 0 0 0 0 0 0 0 0 0 0 0 0 0 0 0 0 0 0 0 0 0 0 0 0 0 0 0 0 0 0 0 0 0 0 0 0 0 0 0 0 0 0 0
0 0 0 0 0 0 0 0 0 0 0 0 0 0 0 0 0 0 0 0 0 0 0 0 0 0 0 0 0 0 0 0 0 0 0 0 0 0 0 0 0 0 0 0
0 0 0 0 0 0 0 0 0 0 0 0 0 0 0 0 0 0 0 0 0 0 0 0 0 0 0 0 0 0 0 0 0 0 0 0 0 0 0 0 0 0 0 0
0 0 0 0 0 0 0 0 0 0 0 0 0 0 0 0 0 0 0 0 0 0 0 0 0 0 0 0 0 0 0 0 0 0 0 0 0 0 0 0 0 0 0 0
0 0 0 0 0 0 0 0 0 0 0 0 0 0 0 0 0 0 0 0 0 0 0 0 0 0 0 0 0 0 0 0 0 0 0 0 0 0 0 0 0 0 0 0
0 0 0 0 0 0 0 0 0 0 0 0 0 0 0 0 0 0 0 0 0 0 0 0 0 0 0 0 0 0 0 0 0 0 0 0 0 0 0 0 0 0 0 0
0 0 0 0 0 0 0 0 0 0 0 0 0 0 0 0 0 0 0 0 0 0 0 0 0 0 0 0 0 0 0 0 0 0 0 0 0 0 0 0 0 0 0 0
0 0 0 0 0 0 0 0 0 0 0 0 0 0 0 0 0 0 0 0 0 0 0 0 0 0 0 0 0 0 0 0 0 0 0 0 0 0 0 0 0 0 0 0
0 0 0 0 0 0 0 0 0 0 0 0 0 0 0 0 0 0 0 0 0 0 0 0 0 0 0 0 0 0 0 0 0 0 0 0 0 0 0 0 0 0 0 0
Height
5848 5846 5844 5842 5840 5836 5832 5828 5823 5818 5811 5804 5799 5792 5786 5778 5770 5762 5755 5747 5739 5731 5723 5716 5708 5702 5695 5689 5683 5678 5673 5670 5666 5663 5661 5660 5659 5658 5658 5659 5660 5662 5665 5669
5844 5842 5841 5838 5835 5832 5827 5821 5817 5812 5805 5797 5790 5783 5776 5767 5757 5748 5740 5731 5722 5712 5703 5695 5686 5679 5671 5665 5658 5653 5648 5644 5640 5637 5635 5634 5633 5632 5633 5634 5635 5637 5640 5644
5841 5839 5836 5833 5830 5826 5821 5814 5809 5803 5797 5788 5781 5773 5765 5755 5743 5734 5724 5713 5703 5692 5682 5673 5664 5655 5648 5641 5635 5630 5626 5622 5618 5615 5613 5611 5609 5609 5609 5609 5610 5613 5615 5619
5838 5835 5832 5830 5824 5819 5814 5808 5802 5795 5787 5779 5770 5761 5752 5741 5728 5717 5706 5694 5683 5673 5662 5653 5643 5635 5628 5622 5617 5612 5608 5604 5601 5598 5596 5594 5592 5591 5589 5588 5588 5590 5593 5596
5834 5831 5826 5822 5819 5812 5807 5799 5793 5785 5776 5767 5757 5748 5740 5726 5713 5701 5688 5677 5665 5654 5644 5635 5627 5620 5614 5609 5604 5599 5595 5592 5589 5586 5584 5581 5579 5577 5575 5574 5573 5573 5574 5577
5830 5826 5821 5818 5811 5805 5799 5790 5781 5772 5763 5754 5744 5733 5725 5711 5698 5684 5671 5658 5647 5638 5629 5622 5615 5608 5603 5598 5593 5589 5585 5581 5578 5575 5573 5571 5569 5567 5565 5563 5561 5561 5562 5563
5827 5822 5815 5812 5804 5799 5793 5786 5776 5766 5755 5744 5732 5720 5707 5694 5681 5667 5654 5643 5633 5624 5617 5610 5603 5598 5593 5588 5583 5578 5574 5571 5568 5565 5562 5560 5559 5557 5555 5553 5552 5551 5551 5552
5822 5817 5813 5805 5798 5792 5785 5775 5765 5755 5743 5731 5719 5705 5691 5677 5664 5651 5640 5631 5621 5613 5607 5600 5593 5587 5582 5577 5572 5567 5563 5560 5557 5554 5551 5550 5549 5547 5546 5544 5543 5543 5542 5543
5818 5814 5807 5799 5791 5784 5774 5765 5754 5743 5731 5718 5704 5691 5677 5663 5651 5639 5629 5620 5611 5603 5596 5589 5582 5576 5570 5565 5559 5555 5551 5548 5545 5542 5540 5539 5538 5537 5537 5536 5535 5535 5535 5536
5813 5807 5800 5792 5783 5775 5766 5755 5744 5732 5719 5705 5691 5677 5664 5651 5639 5628 5619 5609 5601 5592 5584 5577 5570 5563 5557 5552 5546 5542 5538 5535 5533 5530 5529 5528 5528 5527 5528 5528 5528 5528 5529 5530
5807 5801 5794 5787 5777 5768 5758 5747 5735 5722 5708 5693 5678 5665 5652 5640 5629 5618 5609 5599 5590 5581 5572 5564 5557 5550 5544 5538 5533 5528 5525 5522 5520 5518 5517 5517 5517 5518 5519 5520 5520 5522 5523 5525
5802 5795 5787 5779 5770 5759 5749 5737 5725 5711 5697 5682 5667 5654 5642 5630 5619 5609 5599 5589 5579 5569 5560 5552 5543 5536 5529 5523 5518 5514 5511 5509 5507 5506 5506 5506 5507 5509 5510 5511 5513 5515 5518 5520
5796 5789 5781 5772 5763 5752 5740 5728 5715 5701 5686 5672 5659 5645 5633 5622 5611 5600 5589 5578 5568 5557 5547 5538 5529 5522 5515 5508 5504 5500 5497 5496 5495 5495 5495 5496 5497 5499 5501 5504 5506 5509 5513 5516
5790 5782 5774 5765 5755 5744 5732 5720 5707 5693 5678 5664 5650 5638 5625 5614 5603 5592 5580 5568 5557 5546 5535 5525 5516 5509 5502 5496 5492 5488 5486 5484 5484 5484 5485 5487 5489 5491 5494 5497 5500 5504 5508 5512
5783 5775 5766 5757 5747 5737 5725 5712 5699 5686 5671 5657 5644 5631 5619 5607 5596 5584 5572 5560 5548 5537 5526 5515 5506 5499 5492 5487 5482 5479 5477 5475 5475 5476 5477 5480 5482 5486 5489 5492 5496 5500 5504 5509
5777 5769 5760 5751 5741 5730 5718 5705 5692 5678 5664 5651 5638 5625 5614 5602 5590 5578 5566 5554 5542 5530 5519 5509 5500 5492 5485 5479 5475 5472 5470 5469 5468 5469 5472 5475 5478 5482 5485 5489 5493 5498 5503 5508
5770 5762 5754 5744 5734 5723 5711 5698 5685 5671 5658 5645 5633 5621 5609 5598 5587 5575 5563 5550 5538 5526 5515 5505 5496 5488 5481 5475 5470 5467 5465 5465 5465 5466 5469 5472 5476 5480 5484 5488 5492 5497 5502 5508
5764 5756 5746 5737 5727 5716 5705 5693 5680 5667 5654 5641 5629 5617 5606 5594 5583 5571 5560 5548 5537 5526 5515 5505 5496 5487 5480 5474 5470 5467 5465 5465 5465 5467 5469 5472 5476 5480 5485 5489 5493 5498 5503 5509
5758 5750 5741 5732 5722 5711 5700 5688 5676 5663 5650 5638 5626 5615 5604 5593 5581 5570 5559 5547 5537 5527 5516 5507 5498 5490 5483 5477 5473 5470 5468 5468 5468 5470 5472 5475 5478 5482 5486 5490 5495 5500 5506 5512
5753 5745 5736 5727 5717 5707 5696 5684 5672 5660 5647 5635 5624 5613 5603 5592 5582 5571 5560 5549 5538 5529 5519 5510 5502 5495 5489 5483 5479 5476 5474 5473 5473 5474 5476 5478 5482 5485 5489 5494 5499 5504 5510 5517
5747 5740 5732 5723 5713 5703 5691 5680 5668 5657 5645 5633 5623 5612 5602 5592 5583 5572 5563 5553 5544 5534 5525 5517 5509 5502 5496 5491 5487 5484 5481 5480 5480 5481 5483 5485 5488 5492 5496 5501 5506 5511 5517 5523
5742 5735 5727 5718 5709 5699 5688 5677 5665 5654 5643 5632 5622 5613 5603 5594 5585 5576 5566 5557 5548 5540 5532 5525 5518 5511 5506 5501 5497 5494 5492 5491 5490 5491 5492 5495 5498 5501 5505 5509 5514 5520 5525 5532
5736 5729 5722 5713 5705 5695 5685 5674 5663 5652 5642 5631 5622 5613 5604 5595 5587 5579 5571 5563 5554 5547 5540 5534 5527 5522 5517 5513 5509 5506 5504 5503 5503 5504 5505 5506 5509 5512 5515 5520 5525 5530 5535 5541
5730 5724 5716 5708 5700 5691 5682 5672 5661 5650 5640 5630 5621 5613 5605 5598 5590 5582 5575 5568 5561 5555 5549 5543 5538 5533 5528 5525 5522 5520 5518 5516 5516 5517 5518 5519 5522 5525 5528 5531 5536 5540 5545 5551
5724 5718 5711 5704 5696 5687 5678 5669 5659 5649 5639 5630 5622 5614 5607 5600 5593 5586 5580 5574 5568 5563 5557 5552 5548 5544 5540 5537 5534 5532 5531 5530 5530 5530 5531 5533 5535 5537 5540 5543 5547 5551 5555 5560
5718 5712 5706 5699 5691 5683 5674 5665 5656 5648 5639 5630 5622 5615 5609 5602 5596 5590 5585 5580 5575 5570 5565 5561 5557 5554 5551 5548 5546 5544 5543 5543 5543 5543 5544 5545 5546 5548 5551 5554 5557 5560 5564 5568
5711 5706 5700 5693 5686 5678 5670 5662 5654 5646 5638 5629 5622 5615 5609 5604 5598 5593 5589 5584 5580 5576 5572 5569 5566 5563 5560 5558 5556 5555 5554 5553 5553 5553 5554 5555 5556 5558 5560 5562 5565 5568 5571 5574
Wind_Speed
13 13 14 16 18 21 25 28 31 34 38 43 44 47 50 53 55 58 60 61 62 64 65 66 67 67 67 68 69 70 70 71 71 72 72 73 73 74 74 74 74 73 71 69
14 14 15 18 19 23 28 32 35 37 41 44 47 50 53 56 59 61 63 65 67 68 69 69 70 70 70 70 69 68 67 66 65 66 67 68 69 71 72 73 74 75 75 73
16 15 18 21 24 28 32 36 39 42 45 48 51 53 55 58 62 65 67 68 69 70 71 71 71 70 68 65 61 58 55 53 53 53 53 54 56 58 60 63 65 67 69 70
19 20 21 24 27 31 34 39 42 44 47 50 53 55 57 61 65 67 69 70 70 70 70 68 64 60 56 52 49 47 44 43 42 41 40 40 41 42 44 46 49 53 56 59
22 22 27 30 31 35 39 43 44 47 51 54 57 59 60 63 66 68 69 69 67 65 62 56 51 47 44 41 39 38 37 36 35 35 34 33 33 33 35 36 37 39 42 46
26 27 31 34 36 39 42 47 50 53 56 59 61 63 64 66 68 69 67 64 61 56 51 47 43 41 38 36 36 36 36 35 34 33 32 31 30 30 30 31 31 32 33 35
28 30 35 36 40 42 44 48 51 54 57 60 62 65 67 68 67 65 61 57 53 49 46 43 41 39 38 37 37 37 37 35 34 33 32 31 30 29 29 29 29 28 28 29
30 32 36 39 41 44 46 50 54 57 60 63 65 67 68 66 63 59 55 51 48 46 44 42 41 40 40 39 39 38 37 36 35 34 33 32 30 29 28 28 27 26 24 24
31 34 36 40 43 47 50 54 57 60 63 66 68 68 66 62 58 54 51 48 46 46 45 44 44 43 42 41 40 40 38 37 36 35 34 32 30 29 27 26 26 24 22 21
33 36 39 44 47 50 53 57 59 62 65 68 69 66 62 58 55 52 49 48 48 48 47 46 45 43 43 42 42 41 40 38 36 35 33 31 30 28 27 25 24 22 20 19
36 39 42 46 49 52 55 58 61 64 67 68 67 63 59 56 53 51 50 49 49 49 48 46 45 44 43 43 42 41 39 37 35 34 32 30 29 27 26 24 22 21 19 18
38 42 45 48 50 54 57 60 62 65 67 67 64 60 57 54 52 51 50 50 50 49 49 48 47 46 45 44 42 41 39 36 33 32 30 28 26 25 24 23 21 20 19 18
40 43 46 49 51 55 58 61 63 66 67 64 61 57 55 52 51 51 51 51 51 51 51 49 47 45 44 41 39 37 35 33 31 29 27 26 24 23 22 21 20 19 18 18
42 45 47 50 52 56 59 62 64 65 64 61 59 56 53 51 51 51 52 52 52 51 50 48 44 41 38 35 33 31 29 27 26 24 23 22 20 19 19 18 17 17 17 17
44 46 49 51 53 56 59 62 64 64 62 59 57 54 52 51 51 51 51 51 50 48 46 44 40 37 34 31 27 25 23 21 20 19 18 17 16 15 15 15 14 15 17 18
44 46 49 51 54 57 59 62 64 64 62 59 56 53 50 50 50 50 51 50 49 47 43 40 37 34 31 27 24 21 18 16 14 13 12 12 12 12 13 13 13 15 16 17
44 47 49 52 55 58 60 63 64 63 61 58 55 51 49 49 48 49 49 48 47 44 41 38 35 32 28 25 21 17 13 9 7 5 7 9 10 11 11 12 13 16 17 18
45 48 51 53 56 58 60 62 62 62 60 57 53 50 48 48 48 48 47 46 44 42 39 36 33 30 27 22 18 14 9 5 1 2 5 8 11 12 12 13 14 17 18 20
45 48 50 52 55 58 60 61 61 61 58 55 51 48 47 47 48 47 46 44 42 40 37 34 32 29 26 21 17 14 10 7 5 5 7 9 11 12 13 15 17 19 21 23
45 47 49 51 54 57 59 59 60 60 57 53 50 47 46 45 45 45 44 42 40 39 37 35 32 29 25 22 18 16 14 11 10 10 11 13 14 15 17 19 21 23 25 26
45 47 49 51 53 56 58 58 58 58 56 51 48 45 44 43 42 42 41 39 37 36 35 34 32 29 26 24 22 19 18 17 16 16 17 17 19 20 22 23 24 26 27 30
44 47 48 50 52 55 56 56 57 57 54 50 46 43 42 40 39 38 38 37 35 33 32 31 30 28 26 25 24 23 23 23 22 22 21 22 22 22 23 24 26 28 30 31
44 46 48 49 52 54 54 55 55 55 53 48 44 41 39 38 37 36 35 34 33 31 29 29 28 28 26 26 25 25 25 25 25 25 25 24 24 25 26 27 28 29 30 30
44 46 47 48 51 52 53 52 53 53 51 47 43 40 37 35 34 32 32 31 30 29 28 27 27 27 27 26 26 26 26 26 27 27 27 27 27 27 27 28 29 29 29 28
44 45 46 47 49 51 51 50 50 50 48 44 40 37 35 33 31 29 27 27 26 26 26 25 24 25 25 25 25 25 25 25 26 26 26 26 25 26 27 27 27 27 26 26
43 44 45 46 48 50 50 49 49 49 47 42 38 34 32 29 27 26 24 23 22 22 21 21 21 21 22 22 23 23 23 24 23 23 23 23 23 24 24 24 23 23 22 22
43 44 44 45 47 48 48 47 46 46 45 41 36 32 29 26 24 23 21 19 18 17 17 17 17 18 18 18 19 19 20 20 20 20 20 20 20 21 21 20 19 19 19 18
Wind_Direction
311 309 303 299 300 299 300 302 303 304 302 304 306 305 305 305 305 303 303 303 302 300 298 297 295 293 291 289 287 285 283 281 278 276 274 273 271 270 269 268 267 266 266 265
315 312 308 302 303 306 307 306 306 307 307 308 308 308 308 308 306 305 305 305 303 302 301 299 297 295 294 292 290 288 286 284 282 279 277 275 273 271 269 267 267 266 264 263
324 320 314 307 313 310 309 310 311 313 312 310 310 310 311 310 308 308 307 306 305 304 303 301 300 298 297 296 294 292 290 288 286 284 282 280 277 275 272 269 266 264 264 263
329 327 314 316 317 314 314 313 314 314 313 313 314 314 314 312 311 310 310 308 307 305 304 303 302 301 300 299 298 296 294 293 291 289 288 286 284 280 276 273 269 265 263 261
331 329 317 321 322 318 318 316 318 318 318 318 317 317 316 314 313 312 310 309 308 308 308 307 306 305 303 303 302 301 299 297 295 293 292 291 289 286 282 278 275 269 264 261
331 328 319 325 323 323 323 322 324 323 322 320 319 318 318 317 315 314 313 312 312 312 311 310 309 307 305 304 304 303 300 299 297 294 292 291 291 289 286 283 281 278 270 262
329 326 322 328 324 325 324 322 322 321 321 321 321 321 320 319 318 317 316 315 314 313 313 311 309 306 305 304 304 302 301 298 296 293 291 290 290 289 287 285 283 281 274 264
329 327 326 326 324 324 324 324 324 324 324 324 324 324 323 322 321 319 318 317 315 314 313 311 308 305 304 304 302 301 299 297 294 292 290 287 286 285 285 284 282 280 276 269
329 327 326 325 326 327 327 327 327 327 327 327 327 326 325 324 323 321 319 317 316 314 313 311 308 306 303 302 301 299 297 295 292 289 287 284 282 281 281 281 279 277 274 271
328 329 330 329 329 329 329 329 329 329 329 329 328 328 327 327 326 324 321 319 317 315 313 311 309 306 303 302 300 298 296 293 290 287 283 280 278 277 276 276 275 272 269 265
330 331 331 330 328 328 329 330 330 331 331 331 331 331 330 329 328 325 323 320 318 317 315 313 310 307 304 301 299 296 295 292 289 286 281 277 274 273 271 269 267 264 261 255
330 330 329 329 329 330 331 332 332 333 333 333 333 333 332 331 329 327 325 323 321 319 317 314 311 308 304 300 298 295 293 290 288 284 280 274 269 267 264 261 259 256 250 245
329 329 329 330 331 332 333 334 335 335 335 336 336 334 333 332 331 330 328 326 324 321 319 317 314 311 308 303 299 296 292 288 286 282 277 272 266 261 255 252 251 246 240 236
328 329 331 332 333 334 335 336 337 338 338 338 337 336 335 335 334 333 331 330 327 325 323 322 319 317 314 309 304 300 294 289 285 281 275 267 259 252 246 245 241 235 228 222
329 331 332 334 335 336 337 337 339 340 341 341 340 339 338 338 337 337 336 335 334 333 330 328 326 323 320 316 311 306 301 294 287 278 267 257 248 238 234 232 227 219 214 208
330 331 333 335 336 337 338 339 341 342 343 343 343 342 341 341 340 340 341 341 341 340 339 337 334 332 328 324 319 312 307 300 290 275 254 239 228 222 219 215 209 204 200 196
330 332 334 336 338 339 341 341 343 344 345 346 345 344 344 344 344 344 345 346 347 347 347 346 345 342 339 336 333 327 320 310 291 261 228 212 204 200 197 195 191 186 184 181
331 334 336 337 339 341 342 343 344 346 346 347 347 347 347 347 348 349 350 351 352 352 353 354 354 354 354 354 357 358 1 3 27 162 173 174 176 178 180 180 176 173 170 167
332 334 336 338 339 341 343 344 345 347 348 348 350 349 349 350 352 353 355 356 358 359 0 0 1 6 10 14 18 24 32 49 69 102 128 145 153 158 161 161 161 161 160 159
332 334 336 338 340 341 343 344 346 348 349 350 351 351 352 353 355 356 358 0 3 5 7 9 11 15 20 26 32 38 50 66 81 100 116 126 137 143 146 147 146 149 151 152
331 333 336 338 340 342 343 345 347 349 350 351 352 353 354 356 357 359 2 6 8 9 12 16 21 26 30 35 41 50 63 74 87 99 108 116 124 129 131 135 138 141 144 146
330 333 335 338 340 342 344 345 347 349 351 352 353 354 356 358 0 3 5 8 12 15 19 22 28 35 40 44 49 59 71 79 85 92 101 111 118 122 125 129 133 136 140 143
329 332 334 337 339 342 344 345 347 349 351 352 354 356 357 359 2 6 10 14 16 20 24 30 37 42 47 53 59 67 74 80 86 93 99 106 112 117 122 126 129 133 137 141
327 330 333 336 339 341 344 345 347 349 351 353 354 356 358 0 4 8 12 17 22 27 31 35 40 45 52 60 66 73 79 84 90 95 99 103 108 113 118 122 126 130 134 139
325 328 331 334 338 340 343 344 347 349 352 352 353 355 357 0 5 9 13 18 24 28 33 38 44 50 56 62 68 75 81 87 91 94 97 100 105 111 116 120 124 127 132 137
322 326 329 332 336 339 342 344 346 348 351 352 353 354 357 360 4 8 12 18 24 29 36 42 49 56 60 65 72 77 82 87 93 96 97 101 107 113 119 124 127 130 134 138
320 323 327 331 335 338 341 342 344 346 349 351 352 353 355 357 1 5 10 16 22 29 37 45 53 59 65 71 75 80 84 87 90 93 97 103 109 116 122 126 129 133 135 137